Temp
66 66 62 65 65 63 65 68 64 64 65 66 67 66 68 69 68 68 66 67 68 69
68 68 67 64 65 67 69 70 68 68 68 69 67 68 66 69 69 68 68 67 67 67
70 70 70 70 69 69 70 71 71 69 69 70 70 70 70 70 70 68 67 67 67 68
70 71 71 71 71 71 72 72 72 71 71 71 71 71 71 70 70 69 69 70 69 69
70 70 70 70 71 72 72 72 72 72 72 72 72 72 71 70 71 70 69 69 69 68
70 70 70 70 71 71 71 71 72 72 71 71 71 72 72 72 71 71 70 70 68 65
71 71 72 72 72 71 72 71 71 72 72 72 72 73 73 73 72 70 70 66 63 62
72 72 72 71 71 71 70 71 72 71 71 71 72 72 71 70 66 64 62 61 53 42
72 72 71 71 70 70 70 71 70 70 70 68 55 39 41 48 53 47 45 43 39 39
73 72 71 71 70 69 67 66 53 48 45 41 41 39 39 39 40 38 37 36 36 35
73 73 72 69 57 49 46 43 41 39 38 37 37 36 36 36 35 34 33 33 34 34
73 61 53 47 43 41 39 37 36 37 36 35 35 35 35 35 33 32 31 33 33 33
49 46 42 40 37 37 36 35 35 34 35 35 34 35 36 36 34 32 31 32 32 31
42 40 39 37 36 35 33 33 31 31 32 33 33 33 34 35 34 34 33 33 32 31
MSLP
1009.00 1009.69 1010.32 1010.75 1011.38 1011.90 1012.23 1012.89 1013.62 1014.16 1014.55 1014.88 1015.16 1015.49 1015.58 1015.93 1016.26 1016.75 1017.06 1017.29 1017.21 1017.29
1008.33 1008.75 1009.54 1010.54 1010.94 1011.32 1011.66 1012.15 1012.83 1013.28 1013.74 1014.20 1014.71 1015.00 1015.16 1015.49 1015.75 1016.03 1016.27 1016.63 1016.65 1016.70
1007.66 1008.27 1008.83 1009.58 1009.95 1010.47 1011.05 1011.56 1012.06 1012.74 1013.29 1013.71 1014.04 1014.40 1014.64 1014.65 1014.88 1015.26 1015.39 1015.70 1015.88 1015.91
1007.18 1007.60 1008.29 1008.68 1009.22 1009.86 1010.41 1010.89 1011.24 1011.89 1012.38 1012.82 1013.16 1013.44 1013.64 1013.79 1014.03 1014.26 1014.38 1014.35 1014.56 1014.56
1006.69 1007.19 1007.68 1008.24 1008.68 1009.29 1009.85 1010.35 1010.81 1011.26 1011.60 1012.01 1012.35 1012.66 1012.83 1012.90 1012.99 1013.19 1013.29 1013.40 1013.65 1013.74
1005.77 1006.38 1006.97 1007.60 1008.30 1008.89 1009.53 1009.98 1010.51 1010.75 1011.03 1011.37 1011.63 1011.85 1012.02 1012.10 1012.25 1012.42 1012.58 1012.69 1012.90 1013.26
1004.84 1005.63 1006.33 1007.04 1007.61 1008.21 1008.71 1009.23 1009.66 1010.00 1010.32 1010.69 1010.94 1011.14 1011.27 1011.34 1011.44 1011.55 1011.83 1012.38 1013.14 1013.25
1004.24 1005.07 1005.86 1006.61 1007.31 1007.86 1008.39 1008.71 1009.14 1009.59 1010.03 1010.42 1010.67 1010.89 1010.83 1010.91 1011.13 1011.47 1011.90 1012.38 1013.26 1014.03
1003.76 1004.62 1005.37 1006.07 1006.79 1007.50 1008.05 1008.50 1009.12 1009.46 1009.86 1010.31 1011.69 1012.19 1011.66 1011.59 1012.16 1013.03 1013.51 1013.97 1014.81 1015.21
1003.22 1004.14 1005.10 1006.00 1006.71 1007.47 1007.99 1008.53 1010.14 1011.23 1011.94 1013.00 1013.45 1013.18 1012.92 1013.17 1013.90 1014.52 1015.11 1015.63 1015.87 1016.43
1003.15 1004.03 1004.94 1005.95 1007.45 1008.69 1009.75 1010.83 1011.83 1012.78 1013.36 1013.97 1014.67 1014.63 1014.56 1014.45 1015.10 1015.84 1016.55 1016.95 1017.14 1017.60
1003.31 1005.21 1006.73 1007.98 1009.28 1010.50 1011.36 1012.58 1013.47 1014.13 1014.61 1015.01 1015.67 1015.71 1015.53 1015.64 1016.38 1016.87 1017.62 1017.99 1018.25 1018.37
1005.83 1007.16 1008.52 1009.69 1010.81 1011.94 1012.76 1013.79 1014.74 1015.28 1015.75 1016.21 1016.60 1016.93 1016.83 1016.95 1017.27 1017.75 1018.42 1018.74 1018.83 1019.04
1007.89 1008.79 1010.02 1011.04 1012.17 1012.98 1013.89 1014.91 1015.94 1016.59 1017.28 1017.52 1017.80 1018.12 1018.03 1018.11 1018.14 1018.34 1018.72 1019.04 1019.31 1019.56
Wind_Speed
14 10 8 9 9 7 10 11 13 13 11 11 10 9 9 8 9 9 10 13 10 8
14 13 12 13 11 10 10 10 14 13 14 14 12 11 10 10 12 11 11 11 12 11
15 15 15 14 15 14 12 13 14 14 15 15 14 15 14 12 12 12 10 10 13 13
15 14 14 13 13 12 13 13 13 15 14 14 14 14 13 13 13 15 15 14 15 16
16 16 15 14 14 13 14 13 12 12 13 13 14 14 16 16 15 16 16 16 16 17
17 17 17 17 14 14 14 14 15 15 15 15 15 15 16 16 17 17 17 16 16 14
17 16 16 15 16 15 15 16 16 15 15 15 16 17 16 17 16 15 14 11 13 18
15 14 14 14 14 14 15 14 15 14 15 15 13 10 14 13 10 10 11 10 6 12
15 15 15 14 14 13 14 13 13 13 12 8 8 13 11 7 7 10 9 8 9 10
15 15 14 13 13 12 11 5 11 12 13 13 12 19 19 17 11 11 11 10 9 9
13 13 13 8 10 13 12 13 11 13 13 13 11 17 19 20 14 13 13 12 11 9
10 12 14 15 14 13 14 14 13 12 13 14 12 17 16 15 11 12 12 11 10 10
15 16 16 15 15 14 14 14 11 14 14 18 14 18 17 12 7 10 7 8 10 16
16 17 16 16 13 14 15 14 14 14 13 15 15 18 23 18 8 7 7 7 7 7
Wind_Direction
177 171 168 179 169 178 185 182 175 189 190 200 202 205 210 216 228 227 233 235 236 243
187 182 178 181 182 187 187 184 188 196 206 215 216 214 222 237 236 235 230 238 239 240
195 184 190 187 195 189 190 193 183 186 195 201 208 217 223 230 231 238 237 238 241 244
198 194 197 202 191 196 199 197 197 194 202 213 219 225 229 230 233 236 241 237 240 244
199 201 198 205 207 205 206 209 210 217 223 224 226 229 234 237 237 240 248 253 253 253
197 202 205 205 207 204 210 213 219 221 223 229 235 237 237 238 243 246 248 255 258 263
198 204 207 209 207 209 209 215 222 225 230 232 236 238 241 244 242 245 251 252 255 254
199 201 209 210 212 212 216 220 224 228 233 237 241 249 258 253 249 253 254 251 18 47
193 199 202 203 207 212 219 222 228 235 239 249 40 344 14 23 30 45 38 47 54 50
193 196 199 202 204 207 207 202 50 57 65 58 45 40 58 69 66 66 57 54 59 51
190 190 191 177 87 76 71 72 74 66 64 64 50 56 66 71 72 68 62 62 59 60
168 100 90 85 84 82 83 76 72 72 73 71 61 57 67 79 81 80 72 61 56 57
87 90 88 86 84 85 84 86 83 76 67 69 67 57 63 71 78 78 76 70 64 50
79 87 89 91 89 93 91 87 78 77 68 66 61 57 56 55 61 75 75 64 57 44